Regional Weather Roundup
Issued by NWS

Home | Current Version | Previous Version | Text Only | Print | Product List | Glossary Off
Versions: 1 2 3 4 5 6 7 8 9 10 11 12 13 14 15 16 17 18 19 20 21 22 23 24 25 26 27

000
ASUS45 KTFX 011610
RWRMT
MONTANA REGIONAL WEATHER ROUNDUP
NATIONAL WEATHER SERVICE GREAT FALLS MT
1000 AM MDT SAT OCT 01 2016

NOTE: "FAIR" INDICATES FEW OR NO CLOUDS BELOW 12000 FEET WITH NO
SIGNIFICANT WEATHER AND/OR OBSTRUCTIONS TO VISIBILITY.

MTZ001>007-043-011700-
WEST OF THE DIVIDE

CITY           SKY/WX    TMP DP  RH WIND       PRES   REMARKS
KALISPELL      LGT RAIN  53  52  96 CALM      29.92F
MISSOULA       CLOUDY    53  50  89 SE5       29.95S
BUTTE          CLOUDY    54  47  77 CALM      30.05R
MULLAN PASS    FOG       43  42  97 CALM      29.99S VSB 3/4
ANACONDA         N/A     55  45  67 S14       30.01R
DEER LODGE       N/A     57  46  67 S6        30.02R
EUREKA           N/A     52  50  93 CALM      29.93S
HAMILTON         N/A     59  52  77 S7        29.95F
LIBBY            N/A     52  50  93 CALM      29.93S
PLAINS           N/A     55  47  74 CALM      29.94R
RONAN            N/A     56  52  86 CALM      29.96F
$$

MTZ008-052>055-011700-
SOUTHWEST MONTANA

CITY           SKY/WX    TMP DP  RH WIND       PRES   REMARKS
BOZEMAN        CLOUDY    55  48  77 N6        30.04R
DILLON         CLOUDY    56  49  77 S9        30.05F
W YELLOWSTONE  CLOUDY    41  39  93 CALM      30.17R
ENNIS          CLOUDY    63  43  48 S17G30    30.07F
THREE FORKS      N/A     56  34  43 CALM      30.00F
TWIN BRIDGES     N/A     53  49  86 CALM      30.02S
$$

MTZ009-010-012-014-046-048-049-054-011700-
EAST SLOPES AND CENTRAL MONTANA

CITY           SKY/WX    TMP DP  RH WIND       PRES   REMARKS
CUT BANK       CLOUDY    50  48  93 N13       29.92R FOG
GREAT FALLS    CLOUDY    64  43  46 SW10      29.89R
MALMSTROM AFB  CLOUDY    65  44  46 SW16G23   29.89R
HELENA         CLOUDY    56  45  66 NW5       29.96S
AUGUSTA        PTSUNNY   58  44  60 SW3       29.92S
BOWMANS CRNR     N/A     61  44  52 S17G24    29.91R
CHOTEAU          N/A     54  50  87 NW6       29.94R
CONRAD           N/A     53  53 100 W8        29.95R
FAIRFIELD        N/A     55  47  76 N5        29.91R
POWER            N/A     53  47  77 NW8       29.90R
RAYNESFORD     PTSUNNY   65  46  50 SW2       29.91R
$$

MTZ011-013-016-021-045-047-050-051-011700-
NORTH CENTRAL MONTANA

CITY           SKY/WX    TMP DP  RH WIND       PRES   REMARKS
HAVRE          SUNNY     64  55  72 E6        29.85S
LEWISTOWN      SUNNY     67  47  48 SE6       29.94F
N BAR RANCH      N/A     70  45  40 VRB5G12   30.00S
CHINOOK          N/A     59  54  82 E14G21    29.87F
DENTON           N/A     67  50  54 S15       29.87F
GEYSER         PTSUNNY   58  44  60 SW3       29.92S
GRASS RANGE      N/A     66  52  61 NE2       29.91F
JUDITH GAP       N/A     61  50  66 S14       29.98S
ROY              N/A     67  53  60 MISG      29.91S
STANFORD         N/A     66  46  49 S10G18    29.93F
WINIFRED         N/A     62  53  70 MISG      29.91F
$$

MTZ017>020-022>027-061-062-011700-
NORTHEAST MONTANA

CITY           SKY/WX    TMP DP  RH WIND       PRES   REMARKS
GLASGOW        SUNNY     60  50  69 S10       29.94S
JORDAN           N/A     62  54  74 CALM      29.93F
SIDNEY         SUNNY     58  50  75 CALM      29.97S
WOLF POINT     SUNNY     60  51  72 E9        29.95F
PLENTYWOOD       N/A     61  52  72 SE3       29.97F
POPLAR           N/A     59  52  77 NE7       29.96S
SCOBEY           N/A     56  48  74 SE1       29.96S
$$

MTZ028>42-056>058-011700-
SOUTHCENTRAL AND SOUTHEAST MONTANA

CITY           SKY/WX    TMP DP  RH WIND       PRES   REMARKS
BAKER          SUNNY     67  52  58 SE5       29.99S
BILLINGS       MOSUNNY   60  46  59 SW8       29.97F
LIVINGSTON     CLOUDY    63  44  50 CALM      29.99F
MILES CITY     SUNNY     63  52  67 SE7       29.95F
BIG TIMBER     SUNNY     61  46  59 CALM      30.01F
EKALAKA          N/A     75  49  39 E2        29.98F
FORSYTH          N/A     63  52  67 E7        29.94S
HARLOWTON        N/A     58  47  66 W3        29.99S
LAUREL           N/A     60  44  55 S2        29.96F
ROUNDUP          N/A     58  46  64 S7        29.89R
$$

REGIONAL REPORTS...DAKOTAS

CITY           SKY/WX    TMP DP  RH WIND       PRES   REMARKS
WILLISTON      SUNNY     60  49  66 CALM      29.98S
MINOT          SUNNY     61  49  64 SE9       30.00F
DICKINSON      SUNNY     61  49  64 VRB3      29.97S
BEACH            N/A     64  54  68 SE6       30.01S
CROSBY           N/A     57  50  77 NE3       30.01F
WATFORD CITY     N/A     57  48  72 SE5       29.98F
BISMARCK       SUNNY     63  48  58 SE12      30.03S
GRAND FORKS    CLOUDY    58  50  75 S7        30.14F
FARGO          CLOUDY    61  52  72 SE8       30.14F
BUFFALO SD       N/A     68  51  54 CALM      29.93S
RAPID CITY     SUNNY     73  48  41 NE5       30.01S
$$

REGIONAL REPORTS...WYOMING/IDAHO/WASHINGTON

CITY           SKY/WX    TMP DP  RH WIND       PRES   REMARKS
GILLETTE         N/A     70  52  52 CALM      30.05S
SHERIDAN       SUNNY     65  49  56 NE3       30.00F
BUFFALO WY     SUNNY     67  46  47 SE7       30.07S
CODY           SUNNY     64  41  42 SW10      30.06S
YELLOWSTONE LA   N/A     48  45  89 CALM      30.23F
IDAHO FALLS    CLOUDY    56  47  71 CALM      30.06R
SALMON         CLOUDY    55  50  82 SE3       30.01S
BOISE          MOSUNNY   66  31  27 NW13      30.00R
SPOKANE        LGT RAIN  48  43  82 S7        29.98R
$$

REGIONAL REPORTS...ALBERTA

CITY           SKY/WX    TMP DP  RH WIND       PRES   REMARKS
EDMONTON       LGT RAIN  45  43  93 E16       29.98F
CALGARY        LGT RAIN  46  46 100 CALM      29.92F FOG
LETHBRIDGE     CLOUDY    52  50  93 W6        29.91S FOG
MEDICINE HAT   PTSUNNY   54  48  82 N6        29.85F
WATERTON GATE    N/A     50  48  93 S5          N/A
MILK RIVER       N/A     52  50  93 W10         N/A
ONEFOUR          N/A     63  52  67 E12         N/A
$$

REGIONAL REPORTS...SASKATCHEWAN

CITY           SKY/WX    TMP DP  RH WIND       PRES   REMARKS
SWIFT CURRENT  SUNNY     55  52  88 E15       29.93F
REGINA         MOSUNNY   57  50  77 SE12      30.00S
SASKATOON      CLOUDY    50  50 100 E15       30.03S FOG
ROCKGLEN         N/A     64  54  68 E3          N/A
ASSINIBOIA       N/A     48  46  93 E14         N/A
$$




USA.gov is the U.S. government's official web portal to all federal, state and local government web resources and services.